Left ArrowRight Arrow

Hourly Observations for December 22, 2021

Temp ( °F °C ) Dew Point ( °F °C ) Humidity (%) Winds ( mph kmh ) Pressure ( in mb ) Visibility ( mi km ) Precip ( " mm )
12:53 am 00:53 Cloudy with Mist and Fog 40 4.4 38 3.3 93 93 SE 5 7 30.17 1022 2 3 0.00 0.00
1:17 am 01:17 Cloudy with Mist and Fog 40 4.4 38 3.3 93 93 ESE 7 11 30.18 1022 3 4 0.00 0.00
1:46 am 01:46 Cloudy with Mist and Fog 39 3.9 38 3.3 96 96 ESE 7 11 30.18 1022 2 2 0.00 0.00
1:53 am 01:53 Cloudy with Mist and Fog 39 3.9 38 3.3 96 96 ESE 8 13 30.16 1022 2 2 0.00 0.00
2:53 am 02:53 Cloudy with Mist and Fog 40 4.4 38 3.3 93 93 SSE 6 9 30.15 1021 2 3 0.00 0.00
3:53 am 03:53 Cloudy with Light Rain 40 4.4 39 3.9 97 97 S 6 9 30.13 1020 2 3 0.00 0.00
5:53 am 05:53 Cloudy with Light Rain 42 5.6 40 4.4 92 92 ENE 5 7 30.13 1020 3 5 0.00 0.00
5:58 am 05:58 Cloudy with Mist and Fog 42 5.6 40 4.4 92 92 E 5 7 30.14 1021 3 4 0.00 0.00
6:53 am 06:53 Cloudy with Light Rain 42 5.6 40 4.4 92 92 ESE 6 9 30.11 1020 3 5 0.00 0.00
7:42 am 07:42 Cloudy with Mist and Fog 43 6.1 41 5 93 93 SE 5 7 30.12 1020 2 3 0.00 0.00
7:53 am 07:53 Cloudy with Mist and Fog 43 6.1 41 5 93 93 SSE 7 11 30.11 1020 2 3 0.00 0.00
8:53 am 08:53 Cloudy with Mist and Fog 45 7.2 43 6.1 93 93 S 3 6 30.11 1020 3 5 0.00 0.00
9:53 am 09:53 Hazy 49 9.4 43 6.1 80 80 ESE 7 11 30.12 1020 4 6 0.00 0.00
10:53 am 10:53 Mostly Cloudy with Haze 51 10.6 43 6.1 74 74 ESE 7 11 30.10 1019 5 8 0.00 0.00
11:53 am 11:53 Partly Cloudy 55 12.8 44 6.7 67 67 VRB 5 7 30.06 1018 7 11 0.00 0.00
12:53 pm 12:53 Sunny 56 13.3 43 6.1 62 62 SE 8 13 30.03 1017 9 14 0.00 0.00
1:53 pm 13:53 Mostly Cloudy with Light Rain 55 12.8 44 6.7 67 67 E 9 15 30.01 1016 10 16 0.00 0.00
2:53 pm 14:53 Mostly Cloudy with Light Rain 53 11.7 42 5.6 66 66 ESE 12 19 29.99 1016 10 16 0.00 0.00
3:53 pm 15:53 Cloudy with Light Rain 51 10.6 45 7.2 80 80 SE 13 20 29.99 1016 5 8 0.03 0.76
4:53 pm 16:53 Cloudy with Light Rain 50 10 46 7.8 86 86 SE 15 24 29.97 1015 7 11 0.02 0.51
5:53 pm 17:53 Cloudy with Light Rain 51 10.6 48 8.9 89 89 ESE 9 15 29.98 1015 6 10 0.00 0.00
6:53 pm 18:53 Cloudy with Rain 50 10 49 9.4 96 96 ESE 8 13 29.98 1015 6 10 0.01 0.25
7:53 pm 19:53 Cloudy with Light Rain 52 11.1 51 10.6 97 97 ESE 15 24 29.95 1014 8 13 0.03 0.76
8:53 pm 20:53 Mostly Cloudy 53 11.7 51 10.6 93 93 SE 12 19 29.96 1014 10 16 0.01 0.25
9:50 pm 21:50 Cloudy 52 11 52 11 100 100 S 12 19 29.98 1015 10 16 0.00 0.00
9:53 pm 21:53 Cloudy 52 11.1 51 10.6 97 97 S 10 17 29.98 1015 10 16 0.00 0.00
10:40 pm 22:40 Cloudy 52 11.1 50 10 93 93 SSE 12 19 29.96 1015 10 16 0.00 0.00
10:53 pm 22:53 Cloudy 52 11.1 50 10 93 93 SSE 15 24 29.95 1014 10 16 0.00 0.00
11:53 pm 23:53 Mostly Cloudy 50 10 48 8.9 93 93 SSE 15 24 29.94 1014 8 13 0.00 0.00

Powered by Vaisala Xweather